Waarnemingen

Advertentie
Mijn weer
Vlissingen, Nederland (6310): temperatuur & dauwpunt: 13.07.2018 21:00:00 - 19.07.2018 21:00:00 (CEST)Vlissingen, Nederland (6310): temperatuur 5cm: 13.07.2018 21:00:00 - 19.07.2018 21:00:00 (CEST)Vlissingen, Nederland (6310): windsnelheid & windstoten: 13.07.2018 21:00:00 - 19.07.2018 21:00:00 (CEST)Vlissingen, Nederland (6310): windrichting: 13.07.2018 21:00:00 - 19.07.2018 21:00:00 (CEST)Vlissingen, Nederland (6310): luchtdruk: 13.07.2018 21:00:00 - 19.07.2018 21:00:00 (CEST)Vlissingen, Nederland (6310): zicht: 13.07.2018 21:00:00 - 19.07.2018 21:00:00 (CEST)Vlissingen, Nederland (6310): neerslag: 13.07.2018 21:00:00 - 19.07.2018 21:00:00 (CEST)
Datum & Tijd tt [°C] td [°C] tt 5cm [°C] ff [km/u] ff [kn] fx [km/u] fx [kn] dd ppp [hPa] vv [km] rr [mm]
19.07.2018 21:00:00 20,3 14,0 20,2 18 10 25 14 N 1017,7 10 0,0
19.07.2018 20:00:00 21,4 12,3 22,3 16 9 25 14 N 1018,0 10 0,0
19.07.2018 19:00:00 22,5 9,6 24,6 21 11 29 16 N 1017,7 10 0,0
19.07.2018 18:00:00 23,9 8,2 26,0 18 10 29 16 N 1018,2 10 0,0
19.07.2018 17:00:00 24,0 5,6 26,4 22 12 29 16 N 1018,5 10 0,0
19.07.2018 16:00:00 24,0 7,2 27,2 16 9 25 14 N 1018,9 10 0,0
19.07.2018 15:00:00 23,1 8,4 25,6 16 9 25 14 N 1019,1 10 0,0
19.07.2018 14:00:00 24,0 8,9 26,3 13 7 25 14 NNW 1019,0 10 0,0
19.07.2018 13:00:00 23,4 10,4 27,0 11 6 22 12 N 1019,3 10 0,0
19.07.2018 12:00:00 23,2 12,2 27,1 11 6 22 12 NNO 1019,3 10 0,0
19.07.2018 11:00:00 22,6 12,6 25,6 9 5 22 12 N 1019,2 10 0,0
19.07.2018 10:00:00 21,5 12,9 23,6 13 7 18 10 N 1019,4 10 0,0
19.07.2018 09:00:00 20,0 15,8 21,5 9 5 14 8 NNO 1019,4 10 0,0
19.07.2018 08:00:00 18,4 16,2 18,3 9 5 14 8 N 1019,3 8 0,0
19.07.2018 07:00:00 16,9 16,0 16,3 8 4 11 6 N 1019,1 3,8 0,0
19.07.2018 06:00:00 16,7 15,7 15,9 11 6 14 8 N 1019,2 3,5 0,0
19.07.2018 05:00:00 16,4 15,3 15,8 11 6 14 8 N 1019,3 4,3 0,0
19.07.2018 04:00:00 16,5 14,9 15,7 11 6 14 8 N 1019,3 6 0,0
19.07.2018 03:00:00 17,0 14,4 16,2 13 7 18 10 N 1019,5 10 0,0
19.07.2018 02:00:00 17,0 14,2 16,0 11 6 14 8 N 1019,5 10 0,0
19.07.2018 01:00:00 17,3 13,9 16,6 11 6 18 10 N 1019,4 10 0,0
19.07.2018 00:00:00 17,7 13,6 16,8 11 6 14 8 N 1019,3 10 0,0
18.07.2018 23:00:00 18,3 13,8 17,5 11 6 18 10 N 1019,2 10 0,0
18.07.2018 22:00:00 19,5 13,2 18,5 11 6 14 8 NNO 1019,1 10 0,0
18.07.2018 21:00:00 20,4 13,2 20,2 13 7 18 10 NO 1018,8 10 0,0
18.07.2018 20:00:00 21,3 12,3 22,3 13 7 22 12 N 1019,0 10 0,0
18.07.2018 19:00:00 22,5 12,0 24,7 13 7 25 14 N 1018,8 10 0,0
18.07.2018 18:00:00 22,7 12,5 26,0 11 6 25 14 N 1018,9 10 0,0
18.07.2018 17:00:00 23,2 12,4 26,9 13 7 22 12 WNW 1019,0 10 0,0
18.07.2018 16:00:00 23,1 12,8 26,0 21 11 29 16 W 1018,9 10 0,0
18.07.2018 15:00:00 22,8 11,8 27,3 18 10 29 16 W 1018,9 10 0,0
18.07.2018 14:00:00 22,5 13,5 26,0 21 11 25 14 WNW 1018,9 10 0,0
18.07.2018 13:00:00 21,3 15,3 25,9 18 10 29 16 W 1019,1 10 0,0
18.07.2018 12:00:00 20,7 15,5 25,1 18 10 25 14 W 1019,1 10 0,0
18.07.2018 11:00:00 20,2 16,2 22,6 18 10 25 14 WZW 1019,0 10 0,0
18.07.2018 10:00:00 19,2 15,4 20,8 9 5 14 8 WZW 1019,1 10 0,0
18.07.2018 09:00:00 18,1 14,6 19,6 13 7 18 10 ZZW 1019,0 10 0,0
18.07.2018 08:00:00 16,5 13,6 16,7 16 9 22 12 ZZW 1018,7 10 0,0
18.07.2018 07:00:00 15,6 12,7 15,3 18 10 22 12 ZZW 1018,5 10 0,0
18.07.2018 06:00:00 15,6 12,7 14,9 16 9 22 12 ZW 1018,2 10 0,0
18.07.2018 05:00:00 15,9 12,3 15,2 21 11 25 14 ZW 1018,1 10 0,0
18.07.2018 04:00:00 16,4 11,9 15,7 22 12 25 14 ZZW 1018,1 10 0,0
18.07.2018 03:00:00 17,0 11,8 16,2 21 11 25 14 ZW 1018,2 10 0,0
18.07.2018 02:00:00 17,5 11,7 16,7 21 11 25 14 ZZW 1018,2 10 0,0
18.07.2018 01:00:00 17,8 11,9 16,9 14 8 22 12 ZW 1018,0 50 0,0
18.07.2018 00:00:00 18,6 12,6 17,5 16 9 22 12 ZW 1018,0 10 0,0
17.07.2018 23:00:00 19,6 12,4 18,7 26 14 32 18 W 1017,8 10 0,0
17.07.2018 22:00:00 19,5 12,6 18,6 22 12 32 18 W 1017,5 10 0,0
17.07.2018 21:00:00 19,7 13,5 19,6 22 12 29 16 W 1017,4 10 0,0
17.07.2018 20:00:00 20,7 13,1 21,5 22 12 29 16 W 1017,0 10 0,0
17.07.2018 19:00:00 21,0 13,7 22,7 24 13 32 18 W 1016,9 10 0,0
17.07.2018 18:00:00 21,1 12,5 23,4 26 14 32 18 W 1017,0 10 0,0
17.07.2018 17:00:00 21,2 13,8 23,9 28 15 40 21 W 1017,1 10 0,0
17.07.2018 16:00:00 20,7 13,1 23,9 31 17 40 21 W 1017,0 10 0,0
17.07.2018 15:00:00 20,4 13,4 23,9 31 17 40 21 W 1016,9 10 0,0
17.07.2018 14:00:00 20,6 12,6 23,8 34 18 43 23 W 1016,6 10 0,0
17.07.2018 13:00:00 20,4 13,2 23,7 34 18 43 23 W 1016,2 10 0,0
17.07.2018 12:00:00 20,2 13,4 22,8 35 19 43 23 W 1015,7 10 -
17.07.2018 11:00:00 20,2 14,8 22,6 35 19 43 23 W 1015,2 10 -
17.07.2018 10:00:00 20,7 16,3 22,5 26 14 36 19 W 1014,9 10 -
17.07.2018 09:00:00 19,9 16,1 20,9 26 14 36 19 WZW 1014,3 10 0,0
17.07.2018 08:00:00 18,0 16,1 17,8 22 12 29 16 WZW 1014,1 7 0,0
17.07.2018 07:00:00 17,0 14,9 16,8 22 12 29 16 WZW 1013,7 8 0,0
17.07.2018 06:00:00 17,2 14,0 16,6 26 14 36 19 WZW 1013,4 10 0,0
17.07.2018 05:00:00 17,7 12,0 16,8 18 10 25 14 ZW 1013,1 10 0,0
17.07.2018 04:00:00 18,6 11,8 17,6 18 10 22 12 WZW 1013,3 10 0,0
17.07.2018 03:00:00 19,5 12,3 18,5 15 8 22 12 WZW 1013,4 10 0,0
17.07.2018 02:00:00 20,3 14,0 19,5 16 9 22 12 WZW 1013,5 10 0,0
17.07.2018 01:00:00 20,7 16,1 19,9 15 8 18 10 W 1013,8 10 0,0
17.07.2018 00:00:00 21,2 14,1 20,2 15 8 22 12 W 1013,6 10 0,0
16.07.2018 23:00:00 21,6 14,0 20,4 2 1 14 8 - 1013,6 10 -
16.07.2018 22:00:00 21,7 13,8 20,4 4 2 7 4 - 1013,6 10 -
16.07.2018 21:00:00 21,7 17,0 21,8 9 5 14 8 ZW 1013,0 10 -
16.07.2018 20:00:00 22,2 17,1 23,1 8 4 40 21 NNW 1012,5 10 -
16.07.2018 19:00:00 27,3 10,0 28,2 13 7 22 12 NW 1011,9 10 -
16.07.2018 18:00:00 28,1 10,9 30,7 24 13 32 18 NW 1011,9 10 -
16.07.2018 17:00:00 29,7 11,2 32,8 8 4 18 10 NO 1011,8 10 -
16.07.2018 16:00:00 28,8 12,2 33,9 8 4 14 8 WZW 1012,2 10 -
16.07.2018 15:00:00 28,1 11,4 32,5 8 4 11 6 OZO 1012,6 10 -
16.07.2018 14:00:00 28,4 8,9 34,4 9 5 11 6 O 1012,9 10 -
16.07.2018 13:00:00 27,8 10,7 29,4 9 5 11 6 O 1013,3 10 -
16.07.2018 12:00:00 26,4 11,4 29,5 9 5 11 6 O 1013,5 10 -
16.07.2018 11:00:00 25,8 12,5 28,6 5 3 7 4 OZO 1013,5 10 -
16.07.2018 10:00:00 22,2 14,1 25,9 8 4 11 6 OZO 1013,5 10 -
16.07.2018 09:00:00 21,8 14,7 24,1 9 5 14 8 OZO 1013,8 10 -
16.07.2018 08:00:00 21,6 14,6 22,7 13 7 14 8 O 1013,7 10 0,0
16.07.2018 07:00:00 19,6 15,4 18,8 11 6 14 8 O 1013,8 10 0,0
16.07.2018 06:00:00 18,7 14,8 17,0 8 4 7 4 ONO 1013,7 10 0,0
16.07.2018 05:00:00 19,2 15,0 17,3 8 4 11 6 ONO 1013,7 10 0,0
16.07.2018 04:00:00 19,6 14,8 17,8 8 4 11 6 NO 1014,0 10 0,0
16.07.2018 03:00:00 20,3 14,7 18,2 5 3 7 4 NO 1014,2 10 0,0
16.07.2018 02:00:00 20,7 14,8 18,8 8 4 7 4 NO 1014,5 10 0,0
16.07.2018 01:00:00 21,0 14,6 19,7 11 6 14 8 NNO 1014,8 10 0,0
16.07.2018 00:00:00 21,3 14,6 20,4 13 7 18 10 NNO 1014,9 10 0,0
15.07.2018 23:00:00 21,3 14,7 20,1 15 8 18 10 NNO 1015,0 10 -
15.07.2018 22:00:00 22,4 14,1 21,3 13 7 18 10 NNO 1015,1 10 -
15.07.2018 21:00:00 23,9 13,1 23,7 15 8 18 10 NNO 1014,8 10 -
15.07.2018 20:00:00 25,5 13,0 25,9 16 9 22 12 NNO 1014,6 10 -
15.07.2018 19:00:00 27,3 10,5 28,9 13 7 22 12 N 1014,7 10 -
15.07.2018 18:00:00 26,6 14,7 30,5 8 4 18 10 - 1015,0 10 -
15.07.2018 17:00:00 26,9 11,6 28,9 11 6 14 8 WZW 1015,5 10 -
15.07.2018 16:00:00 26,6 10,2 30,4 9 5 14 8 WZW 1015,7 10 -
15.07.2018 15:00:00 27,1 10,6 31,5 5 3 11 6 ZW 1016,1 10 -
15.07.2018 14:00:00 25,4 15,1 31,4 9 5 11 6 ZZO 1016,5 10 -
15.07.2018 13:00:00 26,0 10,2 30,3 5 3 7 4 ZZO 1017,1 10 -
15.07.2018 12:00:00 23,5 15,3 28,2 8 4 11 6 OZO 1017,4 10 -
15.07.2018 11:00:00 22,9 14,8 27,1 9 5 11 6 O 1017,6 10 -
15.07.2018 10:00:00 21,1 14,3 25,2 13 7 14 8 OZO 1017,7 10 -
15.07.2018 09:00:00 20,6 14,0 22,4 11 6 14 8 O 1017,6 10 0,3
15.07.2018 08:00:00 19,3 14,2 19,7 13 7 18 10 O 1017,6 10 0,0
15.07.2018 07:00:00 18,5 14,6 18,0 16 9 18 10 O 1017,3 10 0,0
15.07.2018 06:00:00 18,3 14,5 16,9 15 8 22 12 O 1017,4 10 0,0
15.07.2018 05:00:00 17,3 14,7 15,9 9 5 14 8 ONO 1017,8 10 0,0
15.07.2018 04:00:00 17,8 14,4 16,8 16 9 22 12 ONO 1018,0 10 0,0
15.07.2018 03:00:00 18,1 14,2 16,6 13 7 22 12 ONO 1018,3 10 0,0
15.07.2018 02:00:00 18,2 13,9 16,7 11 6 14 8 ONO 1018,5 10 0,0
15.07.2018 01:00:00 17,9 14,9 16,9 13 7 14 8 NO 1018,7 10 0,0
15.07.2018 00:00:00 18,0 15,2 17,2 15 8 18 10 NO 1018,6 10 0,0
14.07.2018 23:00:00 18,6 15,5 17,9 16 9 22 12 NNO 1018,8 10 0,0
14.07.2018 22:00:00 19,6 14,6 18,9 18 10 29 16 NNO 1018,6 10 -
14.07.2018 21:00:00 21,2 14,0 21,0 16 9 22 12 NNO 1018,5 10 -
14.07.2018 20:00:00 22,2 15,0 23,1 15 8 22 12 NNO 1018,7 10 -
14.07.2018 19:00:00 22,9 14,3 25,0 16 9 25 14 NNO 1019,2 10 -
14.07.2018 18:00:00 23,6 14,6 26,7 15 8 25 14 N 1019,2 10 -
14.07.2018 17:00:00 23,8 14,5 27,8 15 8 25 14 NNO 1019,4 10 -
14.07.2018 16:00:00 24,0 14,8 28,1 16 9 25 14 N 1019,7 10 -
14.07.2018 15:00:00 23,8 14,2 28,0 16 9 25 14 NNO 1020,2 10 -
14.07.2018 14:00:00 24,1 15,3 27,9 5 3 11 6 - 1020,5 10 -
14.07.2018 13:00:00 22,4 15,5 27,5 4 2 11 6 - 1020,9 10 -
14.07.2018 12:00:00 21,0 14,7 26,4 9 5 14 8 ZO 1021,2 10 -
14.07.2018 11:00:00 20,2 14,3 25,1 9 5 14 8 ZO 1021,6 10 -
14.07.2018 10:00:00 20,1 14,5 23,5 11 6 18 10 ONO 1021,7 10 -
14.07.2018 09:00:00 18,5 14,8 20,4 11 6 14 8 NO 1021,6 10 -
14.07.2018 08:00:00 16,6 13,9 17,4 13 7 18 10 NO 1021,5 10 -
14.07.2018 07:00:00 15,6 13,7 15,3 11 6 18 10 NNO 1021,2 10 -
14.07.2018 06:00:00 15,3 13,7 14,3 11 6 14 8 NNO 1021,3 10 -
14.07.2018 05:00:00 15,2 13,7 14,4 13 7 18 10 NNO 1021,3 10 -
14.07.2018 04:00:00 15,5 13,8 14,4 11 6 14 8 N 1021,5 10 -
14.07.2018 03:00:00 15,5 13,8 14,8 11 6 14 8 N 1021,5 10 -
14.07.2018 02:00:00 16,0 13,8 14,9 8 4 14 8 N 1021,8 10 -
14.07.2018 01:00:00 16,3 14,0 15,4 13 7 18 10 NNO 1021,8 10 -
14.07.2018 00:00:00 16,4 14,1 15,7 18 10 25 14 N 1021,5 10 -
13.07.2018 23:00:00 16,6 13,5 16,0 16 9 25 14 N 1021,6 10 0,7
13.07.2018 22:00:00 17,1 13,2 16,6 16 9 29 16 N 1021,3 10 0,1
13.07.2018 21:00:00 18,1 13,3 18,1 18 10 29 16 N 1021,2 10 0,0

tt = temperatuur
td = dauwpunt
tt 5cm = temperatuur 5cm
ff = windsnelheid
fx = windstoten
dd = windrichting
ppp = luchtdruk
vv = zicht
rr = neerslag

Weerstations in de omgeving